Weather History for Cook, MN

Change the Weather History Date:

Wednesday, December 11, 2013

  Actual Average Record
Temperature  
Mean Temperature -12 °F -  
Max Temperature -2 °F 25 °F 42 °F (1998)
Min Temperature -23 °F 10 °F -23 °F (2013)
Degree Days  
Heating Degree Days 78    
Moisture  
Dew Point -19 °F    
Average Humidity 75    
Maximum Humidity 84    
Minimum Humidity 60    
Precipitation  
Precipitation 0.00 in - - ()
Sea Level Pressure  
Sea Level Pressure 30.24 in    
Wind  
Wind Speed 6 mph (WSW)    
Max Wind Speed 10 mph    
Max Gust Speed -    
Visibility 10 miles    
Events      
Averages and records for this station are not official NWS values.
T = Trace of Precipitation, MM = Missing Value Source: NWS Daily Summary

Daily Weather History Graph

Daily Weather History Graph

Search for Another Location

Airport:

Trip Planner

Search our weather history database for the weather conditions in past years. The results will help you decide how hot, cold, wet, or windy it might be!

Date:

Astronomy

Dec. 11, 2013 Rise Set
Actual Time 7:50 AM CST 4:18 PM CST
Civil Twilight 7:13 AM CST 4:54 PM CST
Nautical Twilight 6:34 AM CST 5:33 PM CST
Astronomical Twilight 5:57 AM CST 6:11 PM CST
Moon 1:10 PM CST (12/11) 1:51 AM CST (12/11)
Length of Visible Light 9h 40m
Length of Day
8h 28m
Waxing Gibbous, 72% of the Moon is Illuminated
Dec 11
Waxing Gibbous
Dec 17
Full
Dec 25
Last Quarter
Jan 1
New
Jan 7
First Quarter

Hourly Weather History & Observations

Time (CST) Temp. Windchill Dew Point Humidity Pressure Visibility Wind Dir Wind Speed Gust Speed Precip Events Conditions
12:15 AM -14.8 °F -30.8 °F -18.4 °F 84% 30.14 in 10.0 mi West 6.9 mph - N/A   Clear
12:36 AM -14.8 °F -33.5 °F -20.2 °F 77% 30.15 in 10.0 mi West 9.2 mph - N/A   Clear
12:57 AM -16.6 °F -36.8 °F -20.2 °F 84% 30.15 in 10.0 mi West 10.4 mph - N/A   Clear
1:16 AM -16.6 °F -35.7 °F -20.2 °F 84% 30.16 in 10.0 mi West 9.2 mph - N/A   Clear
1:36 AM -16.6 °F -32.9 °F -20.2 °F 84% 30.17 in 10.0 mi West 6.9 mph - N/A   Clear
1:57 AM -16.6 °F -34.4 °F -20.2 °F 84% 30.18 in 10.0 mi West 8.1 mph - N/A   Clear
2:16 AM -16.6 °F -34.4 °F -20.2 °F 84% 30.19 in 10.0 mi West 8.1 mph - N/A   Clear
2:36 AM -16.6 °F -34.4 °F -22.0 °F 76% 30.20 in 10.0 mi West 8.1 mph - N/A   Clear
2:57 AM -16.6 °F -32.9 °F -22.0 °F 76% 30.21 in 10.0 mi West 6.9 mph - N/A   Clear
3:16 AM -16.6 °F -31.3 °F -22.0 °F 76% 30.22 in 10.0 mi West 5.8 mph - N/A   Clear
3:36 AM -16.6 °F -29.3 °F -22.0 °F 76% 30.22 in 10.0 mi West 4.6 mph - N/A   Clear
3:57 AM -18.4 °F - -23.8 °F 76% 30.23 in 10.0 mi Calm Calm - N/A   Clear
4:16 AM -18.4 °F -28.9 °F -23.8 °F 76% 30.23 in 10.0 mi West 3.5 mph - N/A   Clear
4:36 AM -20.2 °F -30.9 °F -25.6 °F 76% 30.24 in 10.0 mi SW 3.5 mph - N/A   Clear
4:57 AM -20.2 °F - -25.6 °F 76% 30.25 in 10.0 mi Calm Calm - N/A   Clear
5:16 AM -20.2 °F - -27.4 °F 69% 30.26 in 10.0 mi Calm Calm - N/A   Clear
5:36 AM -22.0 °F -35.6 °F -27.4 °F 76% 30.26 in 10.0 mi WSW 4.6 mph - N/A   Clear
5:57 AM -22.0 °F -33.0 °F -27.4 °F 76% 30.27 in 10.0 mi WSW 3.5 mph - N/A   Clear
6:16 AM -23.8 °F -35.0 °F -29.2 °F 76% 30.28 in 10.0 mi West 3.5 mph - N/A   Clear
6:36 AM -23.8 °F -35.0 °F -29.2 °F 76% 30.29 in 10.0 mi West 3.5 mph - N/A   Clear
6:57 AM -23.8 °F -35.0 °F -29.2 °F 76% 30.29 in 10.0 mi WSW 3.5 mph - N/A   Clear
8:02 AM -23.8 °F -35.0 °F -29.2 °F 76% 30.31 in 10.0 mi WSW 3.5 mph - N/A   Clear
8:16 AM -23.8 °F -35.0 °F -29.2 °F 76% 30.31 in 10.0 mi WSW 3.5 mph - N/A   Clear
8:37 AM -22.0 °F -33.0 °F -27.4 °F 76% 30.32 in 10.0 mi WSW 3.5 mph - N/A   Clear
8:57 AM -20.2 °F -30.9 °F -25.6 °F 76% 30.32 in 10.0 mi WSW 3.5 mph - N/A   Clear
9:16 AM -18.4 °F -31.4 °F -23.8 °F 76% 30.33 in 10.0 mi West 4.6 mph - N/A   Clear
9:37 AM -16.6 °F -31.3 °F -22.0 °F 76% 30.34 in 10.0 mi West 5.8 mph - N/A   Clear
9:56 AM -16.6 °F -31.3 °F -20.2 °F 84% 30.34 in 10.0 mi West 5.8 mph - N/A   Clear
10:16 AM -14.8 °F -30.8 °F -20.2 °F 77% 30.34 in 10.0 mi West 6.9 mph - N/A   Clear
10:37 AM -13.0 °F -30.0 °F -16.6 °F 84% 30.34 in 10.0 mi West 8.1 mph - N/A   Clear
10:56 AM -11.2 °F -26.4 °F -16.6 °F 77% 30.33 in 10.0 mi West 6.9 mph - N/A   Clear
11:16 AM -11.2 °F -24.8 °F -14.8 °F 84% 30.33 in 10.0 mi West 5.8 mph - N/A   Clear
11:37 AM -9.4 °F -20.9 °F -14.8 °F 77% 30.32 in 10.0 mi West 4.6 mph - N/A   Clear
11:56 AM -7.6 °F -22.1 °F -11.2 °F 84% 30.31 in 10.0 mi WSW 6.9 mph - N/A   Clear
12:16 PM -7.6 °F -24.6 °F -11.2 °F 84% 30.30 in 10.0 mi WSW 9.2 mph - N/A   Clear
12:37 PM -5.8 °F -22.4 °F -11.2 °F 77% 30.29 in 10.0 mi WSW 9.2 mph - N/A   Clear
12:57 PM -5.8 °F -19.9 °F -11.2 °F 77% 30.28 in 10.0 mi WSW 6.9 mph - N/A   Clear
1:16 PM -4.0 °F -20.2 °F -11.2 °F 71% 30.28 in 10.0 mi SW 9.2 mph - N/A   Clear
1:37 PM -4.0 °F -17.8 °F -11.2 °F 71% 30.28 in 10.0 mi WSW 6.9 mph - N/A   Clear
1:57 PM -2.2 °F -18.9 °F -11.2 °F 66% 30.27 in 10.0 mi WSW 10.4 mph - N/A   Clear
2:16 PM -2.2 °F -14.2 °F -11.2 °F 66% 30.27 in 10.0 mi SW 5.8 mph - N/A   Clear
2:37 PM -2.2 °F -18.9 °F -13.0 °F 60% 30.27 in 10.0 mi WSW 10.4 mph - N/A   Clear
2:57 PM -2.2 °F -18.0 °F -11.2 °F 66% 30.27 in 10.0 mi SW 9.2 mph - N/A   Clear
3:16 PM -2.2 °F -15.6 °F -13.0 °F 60% 30.26 in 10.0 mi SW 6.9 mph - N/A   Clear
3:37 PM -4.0 °F -19.0 °F -13.0 °F 65% 30.27 in 10.0 mi SW 8.1 mph - N/A   Clear
3:57 PM -4.0 °F -19.0 °F -13.0 °F 65% 30.27 in 10.0 mi SW 8.1 mph - N/A   Clear
4:16 PM -5.8 °F -18.4 °F -13.0 °F 71% 30.27 in 10.0 mi SW 5.8 mph - N/A   Clear
4:37 PM -7.6 °F -20.6 °F -13.0 °F 77% 30.27 in 10.0 mi SW 5.8 mph - N/A   Clear
4:57 PM -7.6 °F -16.5 °F -14.8 °F 71% 30.26 in 10.0 mi SW 3.5 mph - N/A   Clear
5:16 PM -9.4 °F -20.9 °F -14.8 °F 77% 30.25 in 10.0 mi SW 4.6 mph - N/A   Clear
5:37 PM -9.4 °F -22.7 °F -14.8 °F 77% 30.24 in 10.0 mi SSW 5.8 mph - N/A   Clear
5:56 PM -9.4 °F -22.7 °F -16.6 °F 71% 30.23 in 10.0 mi SW 5.8 mph - N/A   Clear
6:17 PM -9.4 °F -24.3 °F -16.6 °F 71% 30.22 in 10.0 mi SW 6.9 mph - N/A   Clear
6:36 PM -9.4 °F -22.7 °F -16.6 °F 71% 30.22 in 10.0 mi SW 5.8 mph - N/A   Clear
6:56 PM -9.4 °F -20.9 °F -16.6 °F 71% 30.23 in 10.0 mi SW 4.6 mph - N/A   Clear
7:17 PM -9.4 °F -20.9 °F -16.6 °F 71% 30.22 in 10.0 mi SW 4.6 mph - N/A   Clear
7:36 PM -9.4 °F -20.9 °F -16.6 °F 71% 30.22 in 10.0 mi SW 4.6 mph - N/A   Clear
7:57 PM -9.4 °F -22.7 °F -16.6 °F 71% 30.21 in 10.0 mi SW 5.8 mph - N/A   Clear
8:16 PM -9.4 °F -22.7 °F -16.6 °F 71% 30.20 in 10.0 mi SW 5.8 mph - N/A   Clear
8:36 PM -9.4 °F -18.6 °F -16.6 °F 71% 30.20 in 10.0 mi SSW 3.5 mph - N/A   Clear
8:57 PM -9.4 °F -20.9 °F -16.6 °F 71% 30.18 in 10.0 mi SSW 4.6 mph - N/A   Clear
9:16 PM -11.2 °F -23.0 °F -16.6 °F 77% 30.18 in 10.0 mi SSW 4.6 mph - N/A   Clear
9:37 PM -11.2 °F -20.6 °F -16.6 °F 77% 30.16 in 10.0 mi SSW 3.5 mph - N/A   Clear
9:57 PM -11.2 °F -20.6 °F -16.6 °F 77% 30.16 in 10.0 mi SSW 3.5 mph - N/A   Clear
10:16 PM -11.2 °F -23.0 °F -16.6 °F 77% 30.16 in 10.0 mi SSW 4.6 mph - N/A   Scattered Clouds
10:37 PM -11.2 °F - -16.6 °F 77% 30.16 in 10.0 mi Calm Calm - N/A   Clear
10:57 PM -11.2 °F - -16.6 °F 77% 30.15 in 10.0 mi Calm Calm - N/A   Clear
11:16 PM -13.0 °F - -18.4 °F 77% 30.15 in 10.0 mi Calm Calm - N/A   Clear
11:37 PM -16.6 °F - -22.0 °F 76% 30.15 in 10.0 mi Calm Calm - N/A   Clear
11:57 PM -18.4 °F - -23.8 °F 76% 30.14 in 10.0 mi Calm Calm - N/A   Clear